This is the latest recevied weather packets stored in our database for station/object WD8INF-9. If no packets are shown the sender has not sent any weather packets the latest 10 day(s).
| Time | Temp. | Humidity | Pressure | Rain* | Wind** | Luminosity | Snow |
|---|---|---|---|---|---|---|---|
| 1777761813 | 11.11° C | - | 1015.7 hPa | 0 mm | - | - | - |
| 1777761513 | 11.67° C | - | 1015.6 hPa | 0 mm | - | - | - |
| 1777761213 | 12.78° C | - | 1015.5 hPa | 0 mm | - | - | - |
| 1777760912 | 12.78° C | - | 1015.6 hPa | 0 mm | - | - | - |
| 1777760612 | 11.11° C | - | 1015.6 hPa | 0 mm | - | - | - |
| 1777760312 | 11.67° C | - | 1015.6 hPa | 0 mm | - | - | - |
| 1777760011 | 13.89° C | - | 1015.6 hPa | 0 mm | - | - | - |
| 1777759710 | 13.89° C | - | 1015.6 hPa | 0 mm | - | - | - |
| 1777759410 | 15.56° C | - | 1015.6 hPa | 0 mm | - | - | - |
| 1777759110 | 13.89° C | - | 1015.6 hPa | 0 mm | - | - | - |
| 1777758809 | 11.67° C | - | 1015.6 hPa | 0 mm | - | - | - |
| 1777758509 | 11.67° C | - | 1015.6 hPa | 0 mm | - | - | - |
| 1777758207 | 11.11° C | - | 1015.4 hPa | 0 mm | - | - | - |
| 1777757907 | 11.67° C | - | 1015.4 hPa | 0 mm | - | - | - |
| 1777757606 | 13.33° C | - | 1015.6 hPa | 0 mm | - | - | - |
| 1777757004 | 15° C | - | 1015.4 hPa | 0 mm | - | - | - |
| 1777756704 | 16.67° C | - | 1015.5 hPa | 0 mm | - | - | - |
| 1777756404 | 20° C | - | 1015.2 hPa | 0 mm | - | - | - |
| 1777756104 | 16.67° C | - | 1015.4 hPa | 0 mm | - | - | - |
| 1777755804 | 11.67° C | - | 1015.5 hPa | 0 mm | - | - | - |
| 1777755503 | 14.44° C | - | 1015.3 hPa | 0 mm | - | - | - |
| 1777755203 | 15° C | - | 1015.4 hPa | 0 mm | - | - | - |
| 1777754902 | 12.22° C | - | 1015.3 hPa | 0 mm | - | - | - |
| 1777754602 | 12.22° C | - | 1015.3 hPa | 0 mm | - | - | - |
| 1777754301 | 12.78° C | - | 1015.4 hPa | 0 mm | - | - | - |
* Rain since midnight (hover to see other rain measurements)
** Current wind speed in m/s (hover to see current wind gust speed)